Murray, KY

4:38 PM CDT on June 23, 2017 (GMT -0500)
Kyle-Oakley

Weather History for KCEY - October, 2012

Change the Weather History Date:

Tuesday, October 2, 2012

  Actual Average (KPAH) Record (KPAH)
Temperature  
Mean Temperature 56 °F -  
Max Temperature 59 °F 75 °F 93 °F (1953)
Min Temperature 53 °F 50 °F 34 °F (1958)
Degree Days  
Heating Degree Days 9    
Growing Degree Days 6 (Base 50)    
Moisture  
Dew Point 53 °F    
Average Humidity 91    
Maximum Humidity 100    
Minimum Humidity 72    
Precipitation  
Precipitation 0.04 in - - ()
Sea Level Pressure  
Sea Level Pressure 29.82 in    
Wind  
Wind Speed 7 mph (NW)    
Max Wind Speed 14 mph    
Max Gust Speed -    
Visibility 7 miles    
Events      
Averages and records for this station are not official NWS values.
T = Trace of Precipitation, MM = Missing Value Source: NWS Daily Summary

Daily Weather History Graph

Daily Weather History Graph

Search for Another Location

Airport or City:

Trip Planner

Search our weather history database for the weather conditions in past years. The results will help you decide how hot, cold, wet, or windy it might be!

Date:

Astronomy

Oct. 02, 2012 Rise Set
Actual Time 6:49 AM CDT 6:34 PM CDT
Civil Twilight 6:24 AM CDT 7:00 PM CDT
Nautical Twilight 5:54 AM CDT 7:30 PM CDT
Astronomical Twilight 5:24 AM CDT 8:00 PM CDT
Moon 7:53 PM CDT (10/2) 9:11 AM CDT (10/2)
Length of Visible Light 12h 36m
Length of Day
11h 44m
Waning Gibbous, 94% of the Moon is Illuminated
Oct 2
Waning Gibbous
Oct 8
Last Quarter
Oct 15
New
Oct 21
First Quarter
Oct 29
Full

Hourly Weather History & Observations

Time (CDT) Temp. Dew Point Humidity Pressure Visibility Wind Dir Wind Speed Gust Speed Precip Events Conditions
12:15 AM 55.4 °F 55.4 °F 100% 29.70 in 2.0 mi NNW 6.9 mph - 0.01 in   Overcast
12:35 AM 55.4 °F 55.4 °F 100% 29.69 in 2.0 mi NNW 9.2 mph - 0.01 in   Overcast
12:55 AM 55.4 °F 55.4 °F 100% 29.70 in 2.5 mi NNW 9.2 mph - 0.02 in   Overcast
1:35 AM 55.4 °F 55.4 °F 100% 29.69 in 3.0 mi NNW 6.9 mph - N/A   Overcast
1:55 AM 55.4 °F 55.4 °F 100% 29.70 in 4.0 mi NNW 8.1 mph - N/A   Overcast
2:15 AM 55.4 °F 55.4 °F 100% 29.70 in 5.0 mi NNW 9.2 mph - N/A   Overcast
2:35 AM 55.4 °F 55.4 °F 100% 29.69 in 4.0 mi NNW 8.1 mph - N/A   Overcast
2:55 AM 55.4 °F 55.4 °F 100% 29.69 in 4.0 mi NNW 8.1 mph - N/A   Overcast
3:15 AM 55.4 °F 53.6 °F 94% 29.69 in 7.0 mi NNW 9.2 mph - N/A   Overcast
3:35 AM 55.4 °F 53.6 °F 94% 29.69 in 9.0 mi NNW 6.9 mph - N/A   Overcast
3:55 AM 55.4 °F 53.6 °F 94% 29.70 in 10.0 mi NW 6.9 mph - N/A   Overcast
4:15 AM 55.4 °F 53.6 °F 94% 29.70 in 5.0 mi NW 8.1 mph - N/A   Overcast
4:35 AM 55.4 °F 53.6 °F 94% 29.71 in 3.0 mi NW 8.1 mph - N/A   Overcast
4:55 AM 55.4 °F 53.6 °F 94% 29.71 in 2.5 mi NW 8.1 mph - N/A   Overcast
5:15 AM 53.6 °F 53.6 °F 100% 29.73 in 2.0 mi NW 9.2 mph - N/A   Overcast
5:35 AM 53.6 °F 53.6 °F 100% 29.73 in 2.5 mi NW 9.2 mph - 0.01 in   Overcast
5:55 AM 53.6 °F 53.6 °F 100% 29.73 in 2.0 mi NW 10.4 mph - 0.01 in   Overcast
6:15 AM 53.6 °F 53.6 °F 100% 29.74 in 4.0 mi NW 10.4 mph - N/A   Mostly Cloudy
6:35 AM 53.6 °F 53.6 °F 100% 29.74 in 3.0 mi NNW 8.1 mph - N/A   Overcast
6:55 AM 53.6 °F 53.6 °F 100% 29.75 in 4.0 mi NW 8.1 mph - N/A   Overcast
7:15 AM 53.6 °F 53.6 °F 100% 29.76 in 2.0 mi NW 8.1 mph - N/A   Overcast
7:35 AM 53.6 °F 53.6 °F 100% 29.76 in 2.0 mi NNW 8.1 mph - N/A   Overcast
7:55 AM 53.6 °F 53.6 °F 100% 29.77 in 2.0 mi NW 8.1 mph - N/A   Mostly Cloudy
8:15 AM 53.6 °F 53.6 °F 100% 29.77 in 1.8 mi NW 6.9 mph - 0.01 in   Scattered Clouds
8:35 AM 53.6 °F 53.6 °F 100% 29.78 in 2.0 mi NW 8.1 mph - 0.01 in   Scattered Clouds
8:55 AM 53.6 °F 53.6 °F 100% 29.79 in 2.5 mi NW 8.1 mph - 0.01 in   Mostly Cloudy
9:15 AM 53.6 °F 53.6 °F 100% 29.79 in 7.0 mi NW 6.9 mph - N/A   Mostly Cloudy
9:35 AM 53.6 °F 53.6 °F 100% 29.80 in 10.0 mi NNW 8.1 mph - N/A   Mostly Cloudy
9:55 AM 53.6 °F 53.6 °F 100% 29.80 in 5.0 mi NW 6.9 mph - N/A   Overcast
10:15 AM 55.4 °F 53.6 °F 94% 29.81 in 7.0 mi NW 6.9 mph - N/A   Overcast
10:35 AM 55.4 °F 53.6 °F 94% 29.82 in 7.0 mi WNW 8.1 mph - N/A   Overcast
10:55 AM 55.4 °F 53.6 °F 94% 29.82 in 10.0 mi WNW 4.6 mph - N/A   Overcast
11:15 AM 55.4 °F 53.6 °F 94% 29.82 in 10.0 mi WNW 6.9 mph - N/A   Overcast
11:35 AM 57.2 °F 53.6 °F 88% 29.81 in 10.0 mi WNW 8.1 mph - N/A   Overcast
11:55 AM 57.2 °F 53.6 °F 88% 29.82 in 10.0 mi West 8.1 mph - N/A   Overcast
12:15 PM 57.2 °F 53.6 °F 88% 29.82 in 10.0 mi NW 9.2 mph - N/A   Overcast
12:35 PM 57.2 °F 53.6 °F 88% 29.82 in 10.0 mi NW 6.9 mph - N/A   Overcast
12:55 PM 57.2 °F 53.6 °F 88% 29.82 in 10.0 mi NW 5.8 mph - N/A   Overcast
1:15 PM 57.2 °F 53.6 °F 88% 29.82 in 10.0 mi NW 5.8 mph - N/A   Overcast
1:35 PM 59.0 °F 53.6 °F 82% 29.82 in 10.0 mi NW 8.1 mph - N/A   Overcast
1:55 PM 59.0 °F 53.6 °F 82% 29.81 in 10.0 mi NW 9.2 mph - N/A   Overcast
2:15 PM 59.0 °F 51.8 °F 77% 29.82 in 10.0 mi WNW 9.2 mph - N/A   Overcast
2:35 PM 59.0 °F 51.8 °F 77% 29.83 in 10.0 mi WNW 13.8 mph - N/A   Overcast
2:55 PM 59.0 °F 51.8 °F 77% 29.83 in 10.0 mi NW 10.4 mph - N/A   Overcast
3:15 PM 59.0 °F 51.8 °F 77% 29.84 in 10.0 mi NNW 6.9 mph - N/A   Overcast
3:35 PM 59.0 °F 51.8 °F 77% 29.84 in 10.0 mi NW 4.6 mph - N/A   Overcast
3:55 PM 59.0 °F 51.8 °F 77% 29.85 in 10.0 mi NNW 3.5 mph - N/A   Overcast
4:15 PM 59.0 °F 53.6 °F 82% 29.86 in 10.0 mi NNW 5.8 mph - N/A   Overcast
4:35 PM 59.0 °F 53.6 °F 82% 29.87 in 10.0 mi NW 5.8 mph - N/A   Overcast
4:55 PM 59.0 °F 53.6 °F 82% 29.88 in 10.0 mi NW 6.9 mph - N/A   Overcast
5:15 PM 59.0 °F 51.8 °F 77% 29.89 in 10.0 mi NW 5.8 mph - N/A   Overcast
5:35 PM 59.0 °F 50.0 °F 72% 29.89 in 10.0 mi NNW 6.9 mph - N/A   Overcast
5:55 PM 59.0 °F 50.0 °F 72% 29.89 in 10.0 mi North 3.5 mph - N/A   Overcast
6:15 PM 57.2 °F 51.8 °F 82% 29.90 in 10.0 mi NNW 5.8 mph - N/A   Overcast
6:55 PM 57.2 °F 53.6 °F 88% 29.90 in 10.0 mi Calm Calm - N/A   Overcast
7:15 PM 55.4 °F 53.6 °F 94% 29.90 in 10.0 mi Calm Calm - N/A   Overcast
7:35 PM 57.2 °F 53.6 °F 88% 29.91 in 10.0 mi South 3.5 mph - N/A   Overcast
7:55 PM 55.4 °F 53.6 °F 94% 29.92 in 10.0 mi SW 3.5 mph - N/A   Overcast
8:15 PM 57.2 °F 53.6 °F 88% 29.92 in 10.0 mi WSW 3.5 mph - N/A   Overcast
8:35 PM 57.2 °F 53.6 °F 88% 29.93 in 10.0 mi SW 4.6 mph - N/A   Overcast
8:55 PM 57.2 °F 53.6 °F 88% 29.94 in 10.0 mi SW 4.6 mph - N/A   Overcast
9:15 PM 57.2 °F 53.6 °F 88% 29.94 in 10.0 mi SW 3.5 mph - N/A   Overcast
9:35 PM 57.2 °F 53.6 °F 88% 29.95 in 10.0 mi SSW 3.5 mph - N/A   Overcast
9:55 PM 55.4 °F 53.6 °F 94% 29.95 in 10.0 mi South 4.6 mph - N/A   Overcast
10:15 PM 57.2 °F 53.6 °F 88% 29.96 in 10.0 mi South 5.8 mph - N/A   Overcast
10:35 PM 57.2 °F 53.6 °F 88% 29.96 in 10.0 mi Calm Calm - N/A   Overcast
10:55 PM 55.4 °F 53.6 °F 94% 29.96 in 10.0 mi South 6.9 mph - N/A   Overcast
11:15 PM 55.4 °F 53.6 °F 94% 29.96 in 10.0 mi South 6.9 mph - N/A   Mostly Cloudy
11:35 PM 55.4 °F 51.8 °F 88% 29.96 in 10.0 mi South 8.1 mph - N/A   Scattered Clouds
11:55 PM 55.4 °F 51.8 °F 88% 29.96 in 10.0 mi South 8.1 mph - N/A   Overcast